Back to catalog

CZ-6A DEB

AlivePO
NORAD 60768·DEBRIS·🇨🇳 China

Launched Aug 6, 2024 from Taiyuan Satellite Launch Center

Loading…

Next Passes (next 24 hours)

TLE

FreshSource: Space-Track

Epoch: Sep 14, 2026, 11:42 UTC

1 60768U 24140ET  26257.48815630  .00002459  00000-0  49082-3 0  9991
2 60768  89.0866 268.0262 0109795 317.1582  42.1111 14.57886179111009

Track CZ-6A DEB in real time with AllMySat

Download on the App Store